AirNav   Air Wisconsin pilot careers
 
 355 users online  

42A Melbourne Municipal Airport - John E Miller Field
Melbourne, Arkansas, USA

GOING TO MELBOURNE?


FAA INFORMATION EFFECTIVE 11 OCTOBER 2018

Location

FAA Identifier: 42A
Lat/Long: 36-04-15.5000N / 091-49-48.5000W
36-04.258333N / 091-49.808333W
36.0709722 / -91.8301389
(estimated)
Elevation: 734.8 ft. / 224.0 m (surveyed)
Variation: 01E (2005)
From city: 3 miles E of MELBOURNE, AR
Time zone: UTC -5 (UTC -6 during Standard Time)
Zip code: 72556

Airport Operations

Airport use: Open to the public
Activation date: 01/1994
Control tower: no
ARTCC: MEMPHIS CENTER
FSS: JONESBORO FLIGHT SERVICE STATION
NOTAMs facility: JBR (NOTAM-D service available)
Attendance: MON-FRI DAYLIGHT HOURS
Wind indicator: lighted
Segmented circle: yes
Lights: ACTVT MIRL RY 03/21 & REIL RY 03/21 - 122.95.
Beacon: white-green (lighted land airport)
Operates sunset to sunrise.

Airport Communications

CTAF: 122.9
  • APCH/DEP SERVICE PRVDD BY MEMPHIS ARTCC ON FREQS 126.85/281.55 (HARRISON RCAG).

Airport Services

Fuel available: 100LL JET-A
FUEL SELF SERVE WITH MAJOR CREDIT CARD (100LL & JET A)
Parking: hangars and tiedowns
Airframe service: MAJOR
Powerplant service: MAJOR

Runway Information

Runway 3/21

Dimensions: 4003 x 75 ft. / 1220 x 23 m
150 FT PAVED STOPWAY EACH END - FULL STRENGTH.
Surface: asphalt, in good condition
Runway edge lights: medium intensity
Runway edge markings: RWY 3 & 21 MARKINGS FADED
Gradient: SW.
RUNWAY 3  RUNWAY 21
Latitude: 36-03.978357N36-04.539275N
Longitude: 091-50.021925W091-49.594312W
Elevation: 734.8 ft.708.9 ft.
Gradient: 0.6% UP
Traffic pattern: leftleft
Runway heading: 031 magnetic, 032 true211 magnetic, 212 true
Markings: nonprecision, in poor conditionnonprecision, in poor condition
Visual slope indicator: 2-light PAPI on left (3.00 degrees glide path)2-light PAPI on left (3.00 degrees glide path)
Runway end identifier lights: yesyes
Touchdown point: yes, no lightsyes, no lights
Obstructions: 27 ft. tree, 1100 ft. from runway, 530 ft. left of centerline, 33:1 slope to clear50 ft. tree, 1550 ft. from runway, 425 ft. left of centerline, 27:1 slope to clear

Airport Ownership and Management from official FAA records

Ownership: Publicly-owned
Owner: CITY OF MELBOURNE
PO BOX 800
MELBOURNE, AR 72556
Phone 870-368-4215
Manager: KELLY POWELL
P.O. BOX 800
MELBOURNE, AR 72556
Phone (870) 291-2665
COMMISSION CHAIRMAN.

Airport Operational Statistics

Aircraft based on the field: 18
Single engine airplanes: 14
Multi engine airplanes: 3
Jet airplanes: 1
    
Aircraft operations: avg 41/day *
67% local general aviation
33% transient general aviation
<1% military
* for 12-month period ending 30 June 2017

Instrument Procedures

NOTE: All procedures below are presented as PDF files. If you need a reader for these files, you should download the free Adobe Reader.

NOT FOR NAVIGATION. Please procure official charts for flight.
FAA instrument procedures published for use from 11 October 2018 at 0901Z to 8 November 2018 at 0900Z.

 
IAPs - Instrument Approach Procedures
RNAV (GPS) RWY 03   download (176KB)
RNAV (GPS) RWY 21   download (166KB)
NOTE: Special Take-Off Minimums/Departure Procedures apply   download (249KB)

Other nearby airports with instrument procedures:

6M2 - Horseshoe Bend Airport (10 nm N)
KCVK - Sharp County Regional Airport (17 nm NE)
7M2 - Mountain View Airport-Wilcox Memorial Field (18 nm SW)
KBVX - Batesville Regional Airport (23 nm SE)
KHBZ - Heber Springs Municipal Airport (35 nm S)
 
Loc | Ops | Rwys | IFR | FBO | Links
Com | Nav | Svcs | Stats | Notes


 
Area around 42A (Melbourne Municipal Airport - John E Miller Field)
 
Road maps at: MapQuest Bing Google
 
Aerial photo
WARNING: Photo may not be current or correct
Aerial photo of 42A (Melbourne Municipal Airport - John E Miller Field)
Photo courtesy of the Arkansas Department of Aeronautics
Taken in the Spring of 2007

Do you have a better or more recent aerial photo of Melbourne Municipal Airport - John E Miller Field that you would like to share? If so, please send us your photo.

 
Sectional chart

 
Airport distance calculator
Flying to Melbourne Municipal Airport - John E Miller Field? Find the distance to fly.

From to 42A

Sunrise and sunset
Times for 22-Oct-2018
 Local
(UTC-5)
 Zulu
(UTC)
Morning civil twilight06:5511:55
Sunrise07:2212:22
Sunset18:2223:22
Evening civil twilight18:4823:48

Current date and time
Zulu (UTC)  22-Oct-2018 07:48:26
Local (UTC-5)  22-Oct-2018 02:48:26
 
METAR
KBVX 
23nm S 
220656Z AUTO 00000KT 10SM CLR 02/02 A3025 RMK AO2 SLP247 T00220017 FZRANO
KFLP 
33nm NW 
220656Z AUTO 00000KT 10SM CLR 02/02 A3023 RMK AO2 SLP239 T00220017 FZRANO
KBPK 
36nm NW 
220653Z AUTO 00000KT 10SM CLR 04/02 A3021 RMK AO2 SLP231 T00390022
KM19 
41nm SE 
220556Z AUTO 00000KT 10SM CLR 04/04 A3025 RMK AO2 SLP252 T00440039 10106 20044 58008
KCCA 
41nm SW 
220735Z AUTO 00000KT 10SM CLR 01/01 A3025 RMK AO2
KARG 
44nm E 
220656Z AUTO 00000KT 10SM CLR 04/02 A3026 RMK AO2 SLP248 T00390017
TAF
KBPK 
36nm NW 
220520Z 2206/2306 VRB03KT P6SM FEW250 FM221600 19005KT P6SM SCT250 FM230000 18002KT P6SM BKN250
NOTAMs
Click for the latest NOTAMs
NOTAMs are issued by the DoD/FAA and will open in a separate window not controlled by AirNav.

 

 
 

FBO, Fuel Providers, and Aircraft Ground Support

  
 Business Name 
 
 Contact 
 
 Services / Description 
 
Fuel Prices
 
Comments
  
Melbourne Municipal Airport 870-368-4215
no information available

If you are affiliated with Melbourne Municipal Airport and would like to show here your services, contact info, web link, logo, and more, click here
100LL Jet A
SS $4.39 $3.85 
 Updated 16-Oct-2018
 
   write
SS=Self service
Update Fuel Prices
 

Aviation Businesses, Services, and Facilities

  
 Business Name 
 
 Contact 
 
 Services / Description 
 
Distance
 
Comments
  
Emerson Air Service 870-368-4101
no information available

If you are affiliated with Emerson Air Service and would like to show here your services, contact info, web link, logo, and more, click here
on airport  
   write
 

Would you like to see your business listed on this page?

 If your business provides an interesting product or service to pilots, flight crews, aircraft, or users of the Melbourne Municipal Airport - John E Miller Field, you should consider listing it here.  To start the listing process, click on the button below
 
Add a business
 

Other Pages about Melbourne Municipal Airport - John E Miller Field

Update a link
 
Copyright © AirNav, LLC. All rights reserved. Privacy Policy  Contact